User: anonymous   Login
Location: Unspecified
(0.0000°N, 0.0000°E)
Time: 06:55:01
(UTC+00:00)
Language:

STARLINK-36167 - Orbit

View from above orbital plane
View from above orbital plane
View from above satellite
View from above satellite

Ground track
Ground track

The orbit is defined by the following mean orbital elements,

1 67011U          26145.34372929 +.00000000 +00000-0 +27670-3 0 00000
2 67011  70.0008 261.0291 0003091 269.2856  90.7949 14.98332617    06
Epoch (UTC): 25 May 2026 08:14:58
Eccentricity: 0.0003091
inclination: 70.0008°
perigee height: 570 km
apogee height: 574 km
right ascension of ascending node: 261.0291°
argument of perigee: 269.2856°
revolutions per day: 14.98332617
mean anomaly at epoch: 90.7949°

The dashed part of the orbit path shows where the satellite is in the earth's shadow,  

DLR